Location: Newark
(6.1167°N, 1.2167°E)
Time: 00:24:02
(UTC+00:00)

N. Korean satellite - Visible Passes

Search period start: 23 October 2019 00:00
Search period end: 02 November 2019 00:00
Orbit: 455 x 508 km, 97.2° (Epoch: 22 October)

Date Brightness Start Highest point End Pass type
(mag) Time Alt. Az. Time Alt. Az. Time Alt. Az.
23 Oct 7.8 05:16:42 10° NNE 05:20:17 50° E 05:23:54 10° S visible
24 Oct 9.8 04:52:19 10° NE 04:55:03 20° E 04:57:47 10° SSE visible
24 Oct 10.5 18:17:45 10° WSW 18:18:47 11° W 18:19:51 10° W visible
27 Oct 8.5 05:09:01 10° NNE 05:12:28 37° E 05:15:55 10° S visible
28 Oct 10.1 04:45:01 10° ENE 04:47:12 15° E 04:49:23 10° SE visible
28 Oct 10.0 18:08:53 10° SW 18:10:54 15° W 18:12:55 10° WNW visible
31 Oct 9.1 05:01:22 10° NE 05:04:35 28° E 05:07:48 10° SSE visible
01 Nov 10.4 04:38:03 10° E 04:39:19 11° E 04:40:34 10° ESE visible
01 Nov 9.7 18:00:23 10° SSW 18:02:57 20° W 18:05:32 10° NW visible
